Time,TemperatureF,DewpointF,PressureIn,WindDirection,WindDirectionDegrees,WindSpeedMPH,WindSpeedGustMPH,Humidity,HourlyPrecipIn,Conditions,Clouds,dailyrainin,SoftwareType,DateUTC
2013-09-05 00:01:00,69.6,64.2,30.11,ENE,68,0.0,0.0,83,0.00,,CLR,0.00,VWS V12.08,2013-09-05 04:01:00,
2013-09-05 00:02:00,69.6,64.2,30.11,ENE,68,0.0,0.0,83,0.00,,CLR,0.00,VWS V12.08,2013-09-05 04:02:00,
2013-09-05 00:04:00,69.6,64.2,30.11,ENE,68,0.0,0.0,83,0.00,,CLR,0.00,VWS V12.08,2013-09-05 04:04:00,
2013-09-05 00:07:00,69.6,64.2,30.11,ENE,68,0.0,0.0,83,0.00,,CLR,0.00,VWS V12.08,2013-09-05 04:07:00,
2013-09-05 00:12:00,69.6,64.2,30.12,ENE,68,0.0,0.0,83,0.00,,CLR,0.00,VWS V12.08,2013-09-05 04:12:00,
2013-09-05 00:17:00,69.4,64.4,30.12,ENE,68,0.0,0.0,84,0.00,,CLR,0.00,VWS V12.08,2013-09-05 04:17:00,
2013-09-05 00:22:00,69.3,64.2,30.12,ESE,112,0.0,0.0,84,0.00,,CLR,0.00,VWS V12.08,2013-09-05 04:22:00,
2013-09-05 00:27:00,69.1,64.1,30.12,ESE,112,0.0,0.0,84,0.00,,CLR,0.00,VWS V12.08,2013-09-05 04:27:00,
2013-09-05 00:32:00,69.1,64.1,30.12,ESE,112,0.0,0.0,84,0.00,,CLR,0.00,VWS V12.08,2013-09-05 04:32:00,
2013-09-05 00:37:00,69.1,64.1,30.12,ESE,112,0.0,0.0,84,0.00,,CLR,0.00,VWS V12.08,2013-09-05 04:37:00,
2013-09-05 00:42:00,69.1,64.1,30.12,ESE,112,0.0,0.0,84,0.00,,CLR,0.00,VWS V12.08,2013-09-05 04:42:00,
2013-09-05 00:47:00,69.1,64.1,30.12,ESE,112,0.0,0.0,84,0.00,,CLR,0.00,VWS V12.08,2013-09-05 04:47:00,
2013-09-05 00:52:00,68.9,63.9,30.12,ESE,112,0.0,0.0,84,0.00,,CLR,0.00,VWS V12.08,2013-09-05 04:52:00,
2013-09-05 00:57:00,68.9,63.9,30.12,ESE,112,0.0,0.0,84,0.00,,CLR,0.00,VWS V12.08,2013-09-05 04:57:00,
2013-09-05 01:02:00,68.9,63.9,30.12,ESE,112,0.0,0.0,84,0.00,,CLR,0.00,VWS V12.08,2013-09-05 05:02:00,
2013-09-05 01:07:00,68.9,63.9,30.12,ESE,112,0.0,0.0,84,0.00,,CLR,0.00,VWS V12.08,2013-09-05 05:07:00,
2013-09-05 01:12:00,68.9,63.9,30.12,ESE,112,0.0,0.0,84,0.00,,CLR,0.00,VWS V12.08,2013-09-05 05:12:00,
2013-09-05 01:17:00,68.5,63.5,30.12,ESE,112,0.0,0.0,84,0.00,,CLR,0.00,VWS V12.08,2013-09-05 05:17:00,
2013-09-05 01:22:00,68.4,63.7,30.11,ESE,112,0.0,0.0,85,0.00,,CLR,0.00,VWS V12.08,2013-09-05 05:22:00,
2013-09-05 01:27:00,68.2,63.5,30.12,ESE,112,0.0,0.0,85,0.00,,CLR,0.00,VWS V12.08,2013-09-05 05:27:00,
2013-09-05 01:32:00,68.0,63.3,30.11,ESE,112,0.0,0.0,85,0.00,,CLR,0.00,VWS V12.08,2013-09-05 05:32:00,
2013-09-05 01:37:00,68.0,63.3,30.11,ESE,112,0.0,0.0,85,0.00,,CLR,0.00,VWS V12.08,2013-09-05 05:37:00,
2013-09-05 01:42:00,67.8,63.2,30.11,ESE,112,0.0,0.0,85,0.00,,CLR,0.00,VWS V12.08,2013-09-05 05:42:00,
2013-09-05 01:47:00,67.8,63.2,30.11,ESE,112,0.0,0.0,85,0.00,,CLR,0.00,VWS V12.08,2013-09-05 05:47:00,
2013-09-05 01:52:00,67.8,63.2,30.11,ESE,112,0.0,0.0,85,0.00,,CLR,0.00,VWS V12.08,2013-09-05 05:52:00,
2013-09-05 01:57:00,67.8,63.5,30.11,ESE,112,0.0,0.0,86,0.00,,CLR,0.00,VWS V12.08,2013-09-05 05:57:00,
2013-09-05 02:02:00,67.6,63.3,30.11,ESE,112,0.0,0.0,86,0.00,,CLR,0.00,VWS V12.08,2013-09-05 06:02:00,
2013-09-05 02:07:00,67.6,63.3,30.10,East,90,0.7,0.7,86,0.00,,CLR,0.00,VWS V12.08,2013-09-05 06:07:00,
2013-09-05 02:12:00,67.6,63.3,30.10,ESE,112,0.0,0.7,86,0.00,,CLR,0.00,VWS V12.08,2013-09-05 06:12:00,
2013-09-05 02:17:00,67.6,63.3,30.10,ESE,112,0.0,0.7,86,0.00,,CLR,0.00,VWS V12.08,2013-09-05 06:17:00,
2013-09-05 02:22:00,67.6,63.3,30.11,ESE,112,0.0,0.0,86,0.00,,CLR,0.00,VWS V12.08,2013-09-05 06:22:00,
2013-09-05 02:27:00,67.6,63.3,30.11,NNW,338,0.0,0.0,86,0.00,,CLR,0.00,VWS V12.08,2013-09-05 06:27:00,
2013-09-05 02:32:00,67.6,63.3,30.11,NNW,338,0.0,0.0,86,0.00,,CLR,0.00,VWS V12.08,2013-09-05 06:32:00,
2013-09-05 02:37:00,67.1,62.8,30.10,NNW,338,0.0,0.0,86,0.00,,CLR,0.00,VWS V12.08,2013-09-05 06:37:00,
2013-09-05 02:42:00,67.1,62.8,30.10,NNW,338,0.0,0.0,86,0.00,,CLR,0.00,VWS V12.08,2013-09-05 06:42:00,
2013-09-05 02:47:00,67.1,62.8,30.10,NNW,338,0.0,0.0,86,0.00,,CLR,0.00,VWS V12.08,2013-09-05 06:47:00,
2013-09-05 02:52:00,66.9,62.9,30.10,NE,45,0.0,0.0,87,0.00,,CLR,0.00,VWS V12.08,2013-09-05 06:52:00,
2013-09-05 02:57:00,66.9,62.9,30.10,ENE,68,0.0,0.0,87,0.00,,CLR,0.00,VWS V12.08,2013-09-05 06:57:00,
2013-09-05 03:02:00,66.9,62.9,30.10,ENE,68,0.0,0.0,87,0.00,,CLR,0.00,VWS V12.08,2013-09-05 07:02:00,
2013-09-05 03:07:00,66.9,62.9,30.10,ENE,68,0.0,0.0,87,0.00,,CLR,0.00,VWS V12.08,2013-09-05 07:07:00,
2013-09-05 03:12:00,66.9,62.9,30.10,ENE,68,0.0,0.0,87,0.00,,CLR,0.00,VWS V12.08,2013-09-05 07:12:00,
2013-09-05 03:17:00,66.9,62.9,30.09,ENE,68,0.0,0.0,87,0.00,,CLR,0.00,VWS V12.08,2013-09-05 07:17:00,
2013-09-05 03:22:00,66.9,62.9,30.09,ENE,68,0.0,0.0,87,0.00,,CLR,0.00,VWS V12.08,2013-09-05 07:22:00,
2013-09-05 03:27:00,66.7,62.8,30.10,ENE,68,0.0,0.0,87,0.00,,CLR,0.00,VWS V12.08,2013-09-05 07:27:00,
2013-09-05 03:32:00,66.7,62.8,30.10,ENE,68,0.0,0.0,87,0.00,,CLR,0.00,VWS V12.08,2013-09-05 07:32:00,
2013-09-05 03:37:00,66.7,62.8,30.10,ENE,68,0.0,0.0,87,0.00,,CLR,0.00,VWS V12.08,2013-09-05 07:37:00,
2013-09-05 03:42:00,66.7,62.8,30.09,ENE,68,0.0,0.0,87,0.00,,CLR,0.00,VWS V12.08,2013-09-05 07:42:00,
2013-09-05 03:47:00,66.7,62.8,30.10,ENE,68,0.0,0.0,87,0.00,,CLR,0.00,VWS V12.08,2013-09-05 07:47:00,
2013-09-05 03:52:00,66.7,62.8,30.10,ENE,68,0.0,0.0,87,0.00,,CLR,0.00,VWS V12.08,2013-09-05 07:52:00,
2013-09-05 03:57:00,66.7,62.8,30.10,ENE,68,0.0,0.0,87,0.00,,CLR,0.00,VWS V12.08,2013-09-05 07:57:00,
2013-09-05 04:02:00,66.2,62.2,30.10,ENE,68,0.0,0.0,87,0.00,,CLR,0.00,VWS V12.08,2013-09-05 08:02:00,
2013-09-05 04:07:00,66.2,62.2,30.09,ENE,68,0.0,0.0,87,0.00,,CLR,0.00,VWS V12.08,2013-09-05 08:07:00,
2013-09-05 04:12:00,66.0,62.0,30.10,ENE,68,0.0,0.0,87,0.00,,CLR,0.00,VWS V12.08,2013-09-05 08:12:00,
2013-09-05 04:17:00,66.0,62.0,30.09,ENE,68,0.0,0.0,87,0.00,,CLR,0.00,VWS V12.08,2013-09-05 08:17:00,
2013-09-05 04:22:00,66.0,62.0,30.10,ENE,68,0.0,0.0,87,0.00,,CLR,0.00,VWS V12.08,2013-09-05 08:22:00,
2013-09-05 04:27:00,66.0,62.0,30.09,ENE,68,0.0,0.0,87,0.00,,CLR,0.00,VWS V12.08,2013-09-05 08:27:00,
2013-09-05 04:32:00,65.8,61.9,30.09,ENE,68,0.0,0.0,87,0.00,,CLR,0.00,VWS V12.08,2013-09-05 08:32:00,
2013-09-05 04:37:00,65.8,61.9,30.09,ENE,68,0.0,0.0,87,0.00,,CLR,0.00,VWS V12.08,2013-09-05 08:37:00,
2013-09-05 04:42:00,65.8,61.9,30.09,ENE,68,0.0,0.0,87,0.00,,CLR,0.00,VWS V12.08,2013-09-05 08:42:00,
2013-09-05 04:47:00,65.7,61.7,30.09,ENE,68,0.0,0.0,87,0.00,,CLR,0.00,VWS V12.08,2013-09-05 08:47:00,
2013-09-05 04:52:00,65.7,61.7,30.09,East,90,0.0,0.0,87,0.00,,CLR,0.00,VWS V12.08,2013-09-05 08:52:00,
2013-09-05 04:57:00,65.5,61.5,30.09,East,90,0.0,0.0,87,0.00,,CLR,0.00,VWS V12.08,2013-09-05 08:57:00,
2013-09-05 05:02:00,65.5,61.5,30.09,East,90,0.0,0.0,87,0.00,,CLR,0.00,VWS V12.08,2013-09-05 09:02:00,
2013-09-05 05:07:00,65.3,61.3,30.09,East,90,0.0,0.0,87,0.00,,CLR,0.00,VWS V12.08,2013-09-05 09:07:00,
2013-09-05 05:12:00,65.1,61.2,30.09,East,90,0.0,0.0,87,0.00,,CLR,0.00,VWS V12.08,2013-09-05 09:12:00,
2013-09-05 05:17:00,65.1,61.2,30.10,East,90,0.0,0.0,87,0.00,,CLR,0.00,VWS V12.08,2013-09-05 09:17:00,
2013-09-05 05:22:00,64.9,61.0,30.09,East,90,0.0,0.0,87,0.00,,CLR,0.00,VWS V12.08,2013-09-05 09:22:00,
2013-09-05 05:27:00,64.9,61.0,30.10,East,90,0.0,0.0,87,0.00,,CLR,0.00,VWS V12.08,2013-09-05 09:27:00,
2013-09-05 05:32:00,64.8,60.8,30.10,East,90,0.0,0.0,87,0.00,,CLR,0.00,VWS V12.08,2013-09-05 09:32:00,
2013-09-05 05:37:00,64.8,60.8,30.10,East,90,0.0,0.0,87,0.00,,CLR,0.00,VWS V12.08,2013-09-05 09:37:00,
2013-09-05 05:42:00,64.8,60.8,30.10,East,90,0.0,0.0,87,0.00,,CLR,0.00,VWS V12.08,2013-09-05 09:42:00,
2013-09-05 05:47:00,64.6,60.6,30.10,East,90,0.0,0.0,87,0.00,,CLR,0.00,VWS V12.08,2013-09-05 09:47:00,
2013-09-05 05:52:00,64.2,60.0,30.10,East,90,0.0,0.0,86,0.00,,CLR,0.00,VWS V12.08,2013-09-05 09:52:00,
2013-09-05 05:57:00,64.2,60.0,30.10,East,90,0.0,0.0,86,0.00,,CLR,0.00,VWS V12.08,2013-09-05 09:57:00,
2013-09-05 06:02:00,64.2,60.0,30.10,East,90,0.0,0.0,86,0.00,,CLR,0.00,VWS V12.08,2013-09-05 10:02:00,
2013-09-05 06:07:00,64.2,60.0,30.10,East,90,0.0,0.0,86,0.00,,CLR,0.00,VWS V12.08,2013-09-05 10:07:00,
2013-09-05 06:12:00,64.2,60.0,30.10,East,90,0.0,0.0,86,0.00,,CLR,0.00,VWS V12.08,2013-09-05 10:12:00,
2013-09-05 06:17:00,64.2,60.0,30.10,East,90,0.0,0.0,86,0.00,,CLR,0.00,VWS V12.08,2013-09-05 10:17:00,
2013-09-05 06:22:00,64.0,59.8,30.10,East,90,0.0,0.0,86,0.00,,CLR,0.00,VWS V12.08,2013-09-05 10:22:00,
2013-09-05 06:27:00,64.0,59.8,30.10,East,90,0.0,0.0,86,0.00,,CLR,0.00,VWS V12.08,2013-09-05 10:27:00,
2013-09-05 06:32:00,63.7,59.4,30.11,East,90,0.0,0.0,86,0.00,,CLR,0.00,VWS V12.08,2013-09-05 10:32:00,
2013-09-05 06:37:00,63.7,59.4,30.11,East,90,0.0,0.0,86,0.00,,CLR,0.00,VWS V12.08,2013-09-05 10:37:00,
2013-09-05 06:42:00,63.7,59.4,30.11,East,90,0.0,0.0,86,0.00,,CLR,0.00,VWS V12.08,2013-09-05 10:42:00,
2013-09-05 06:47:00,63.7,59.7,30.11,East,90,0.0,0.0,87,0.00,,CLR,0.00,VWS V12.08,2013-09-05 10:47:00,
2013-09-05 06:52:00,63.7,59.7,30.11,East,90,0.0,0.0,87,0.00,,CLR,0.00,VWS V12.08,2013-09-05 10:52:00,
2013-09-05 06:57:00,63.7,59.7,30.11,East,90,0.0,0.0,87,0.00,,CLR,0.00,VWS V12.08,2013-09-05 10:57:00,
2013-09-05 07:02:00,63.5,59.6,30.11,East,90,0.0,0.0,87,0.00,,CLR,0.00,VWS V12.08,2013-09-05 11:02:00,
2013-09-05 07:07:00,63.5,59.6,30.11,East,90,0.0,0.0,87,0.00,,CLR,0.00,VWS V12.08,2013-09-05 11:07:00,
2013-09-05 07:12:00,63.5,59.6,30.12,East,90,0.0,0.0,87,0.00,,CLR,0.00,VWS V12.08,2013-09-05 11:12:00,
2013-09-05 07:17:00,63.5,59.6,30.12,East,90,0.0,0.0,87,0.00,,CLR,0.00,VWS V12.08,2013-09-05 11:17:00,
2013-09-05 07:22:00,63.5,59.6,30.12,East,90,0.0,0.0,87,0.00,,CLR,0.00,VWS V12.08,2013-09-05 11:22:00,
2013-09-05 07:27:00,63.5,59.6,30.12,East,90,0.0,0.0,87,0.00,,CLR,0.00,VWS V12.08,2013-09-05 11:27:00,
2013-09-05 07:32:00,63.7,59.7,30.12,East,90,0.0,0.0,87,0.00,,CLR,0.00,VWS V12.08,2013-09-05 11:32:00,
2013-09-05 07:37:00,63.7,59.7,30.12,East,90,0.0,0.0,87,0.00,,CLR,0.00,VWS V12.08,2013-09-05 11:37:00,
2013-09-05 07:42:00,63.7,59.7,30.12,East,90,0.0,0.0,87,0.00,,CLR,0.00,VWS V12.08,2013-09-05 11:42:00,
2013-09-05 07:47:00,63.7,59.7,30.13,East,90,0.0,0.0,87,0.00,,CLR,0.00,VWS V12.08,2013-09-05 11:47:00,
2013-09-05 07:52:00,63.7,59.7,30.13,East,90,0.0,0.0,87,0.00,,CLR,0.00,VWS V12.08,2013-09-05 11:52:00,
2013-09-05 07:57:00,64.0,60.1,30.13,East,90,0.0,0.0,87,0.00,,CLR,0.00,VWS V12.08,2013-09-05 11:57:00,
2013-09-05 08:02:00,64.0,60.1,30.13,East,90,0.0,0.0,87,0.00,,CLR,0.00,VWS V12.08,2013-09-05 12:02:00,
2013-09-05 08:07:00,64.2,60.3,30.13,East,90,0.0,0.0,87,0.00,,CLR,0.00,VWS V12.08,2013-09-05 12:07:00,
2013-09-05 08:12:00,64.6,61.0,30.12,East,90,0.0,0.0,88,0.00,,CLR,0.00,VWS V12.08,2013-09-05 12:12:00,
2013-09-05 08:17:00,64.6,61.0,30.12,East,90,0.0,0.0,88,0.00,,CLR,0.00,VWS V12.08,2013-09-05 12:17:00,
2013-09-05 08:22:00,64.6,61.0,30.12,East,90,0.0,0.0,88,0.00,,CLR,0.00,VWS V12.08,2013-09-05 12:22:00,
2013-09-05 08:27:00,64.9,61.3,30.12,East,90,0.0,0.0,88,0.00,,CLR,0.00,VWS V12.08,2013-09-05 12:27:00,
2013-09-05 08:32:00,65.3,61.3,30.12,East,90,0.0,0.0,87,0.00,,CLR,0.00,VWS V12.08,2013-09-05 12:32:00,
2013-09-05 08:37:00,65.5,61.8,30.13,East,90,0.0,0.0,88,0.00,,CLR,0.00,VWS V12.08,2013-09-05 12:37:00,
2013-09-05 08:42:00,65.5,61.8,30.13,East,90,0.0,0.0,88,0.00,,CLR,0.00,VWS V12.08,2013-09-05 12:42:00,
2013-09-05 08:47:00,65.8,62.2,30.13,East,90,0.0,0.0,88,0.00,,CLR,0.00,VWS V12.08,2013-09-05 12:47:00,
2013-09-05 08:52:00,65.8,62.2,30.13,East,90,0.0,0.0,88,0.00,,CLR,0.00,VWS V12.08,2013-09-05 12:52:00,
2013-09-05 08:57:00,66.0,62.0,30.13,ENE,68,0.0,0.0,87,0.00,,CLR,0.00,VWS V12.08,2013-09-05 12:57:00,
2013-09-05 09:02:00,66.0,62.0,30.13,ENE,68,0.0,0.0,87,0.00,,CLR,0.00,VWS V12.08,2013-09-05 13:02:00,
2013-09-05 09:07:00,66.0,62.0,30.13,ENE,68,0.0,0.0,87,0.00,,CLR,0.00,VWS V12.08,2013-09-05 13:07:00,
2013-09-05 09:12:00,66.2,62.2,30.13,ENE,68,0.0,0.0,87,0.00,,CLR,0.00,VWS V12.08,2013-09-05 13:12:00,
2013-09-05 09:17:00,66.4,62.7,30.13,ENE,68,0.0,0.0,88,0.00,,CLR,0.00,VWS V12.08,2013-09-05 13:17:00,
2013-09-05 09:22:00,66.6,62.6,30.13,ENE,68,0.0,0.0,87,0.00,,CLR,0.00,VWS V12.08,2013-09-05 13:22:00,
2013-09-05 09:27:00,66.6,62.6,30.13,ENE,68,0.0,0.0,87,0.00,,CLR,0.00,VWS V12.08,2013-09-05 13:27:00,
2013-09-05 09:32:00,67.3,63.0,30.13,ENE,68,0.0,0.0,86,0.00,,CLR,0.00,VWS V12.08,2013-09-05 13:32:00,
2013-09-05 09:37:00,67.3,63.0,30.12,ENE,68,0.0,0.0,86,0.00,,CLR,0.00,VWS V12.08,2013-09-05 13:37:00,
2013-09-05 09:42:00,67.6,63.0,30.13,ENE,68,0.0,0.0,85,0.00,,CLR,0.00,VWS V12.08,2013-09-05 13:42:00,
2013-09-05 09:47:00,67.6,63.0,30.14,ENE,68,0.0,0.0,85,0.00,,CLR,0.00,VWS V12.08,2013-09-05 13:47:00,
2013-09-05 09:52:00,67.6,63.0,30.13,ENE,68,0.0,0.0,85,0.00,,CLR,0.00,VWS V12.08,2013-09-05 13:52:00,
2013-09-05 09:57:00,68.7,63.7,30.13,ENE,68,0.0,0.0,84,0.00,,CLR,0.00,VWS V12.08,2013-09-05 13:57:00,
2013-09-05 10:02:00,69.1,63.7,30.13,NW,315,0.7,0.7,83,0.00,,CLR,0.00,VWS V12.08,2013-09-05 14:02:00,
2013-09-05 10:07:00,69.6,64.2,30.13,NW,315,1.3,1.3,83,0.00,,CLR,0.00,VWS V12.08,2013-09-05 14:07:00,
2013-09-05 10:12:00,69.6,64.2,30.13,NW,315,1.3,1.3,83,0.00,,CLR,0.00,VWS V12.08,2013-09-05 14:12:00,
2013-09-05 10:17:00,70.3,64.6,30.13,NW,315,0.0,1.3,82,0.00,,CLR,0.00,VWS V12.08,2013-09-05 14:17:00,
2013-09-05 10:22:00,70.5,64.8,30.13,WNW,292,0.0,0.0,82,0.00,,CLR,0.00,VWS V12.08,2013-09-05 14:22:00,
2013-09-05 10:27:00,70.7,64.6,30.13,WNW,292,0.0,0.0,81,0.00,,CLR,0.00,VWS V12.08,2013-09-05 14:27:00,
2013-09-05 10:32:00,71.2,64.8,30.13,WNW,292,0.0,0.0,80,0.00,,CLR,0.00,VWS V12.08,2013-09-05 14:32:00,
2013-09-05 10:37:00,71.2,64.8,30.13,WNW,292,0.0,0.0,80,0.00,,CLR,0.00,VWS V12.08,2013-09-05 14:37:00,
2013-09-05 10:42:00,72.1,65.3,30.13,WNW,292,0.0,0.0,79,0.00,,CLR,0.00,VWS V12.08,2013-09-05 14:42:00,
2013-09-05 10:47:00,72.1,65.3,30.14,WNW,292,0.0,0.0,79,0.00,,CLR,0.00,VWS V12.08,2013-09-05 14:47:00,
2013-09-05 10:52:00,72.1,65.3,30.13,WNW,292,0.0,0.0,79,0.00,,CLR,0.00,VWS V12.08,2013-09-05 14:52:00,
2013-09-05 10:57:00,72.9,66.0,30.13,WNW,292,0.0,0.0,79,0.00,,CLR,0.00,VWS V12.08,2013-09-05 14:57:00,
2013-09-05 11:02:00,73.2,64.8,30.14,WNW,292,0.0,0.0,75,0.00,,CLR,0.00,VWS V12.08,2013-09-05 15:02:00,
2013-09-05 11:07:00,73.6,64.0,30.13,NW,315,0.0,0.0,72,0.00,,CLR,0.00,VWS V12.08,2013-09-05 15:07:00,
2013-09-05 11:12:00,73.9,64.3,30.14,NW,315,0.0,14.1,72,0.00,,CLR,0.00,VWS V12.08,2013-09-05 15:12:00,
2013-09-05 11:17:00,74.1,64.5,30.13,NW,315,0.0,14.1,72,0.00,,CLR,0.00,VWS V12.08,2013-09-05 15:17:00,
2013-09-05 11:22:00,74.3,64.7,30.13,NW,315,0.0,0.0,72,0.00,,CLR,0.00,VWS V12.08,2013-09-05 15:22:00,
2013-09-05 11:27:00,74.5,64.5,30.13,NW,315,0.0,1.6,71,0.00,,CLR,0.00,VWS V12.08,2013-09-05 15:27:00,
2013-09-05 11:32:00,74.8,64.4,30.13,NW,315,0.0,1.6,70,0.00,,CLR,0.00,VWS V12.08,2013-09-05 15:32:00,
2013-09-05 11:37:00,75.0,63.8,30.13,West,270,0.0,1.8,68,0.00,,CLR,0.00,VWS V12.08,2013-09-05 15:37:00,
2013-09-05 11:42:00,75.4,64.1,30.13,WNW,292,0.0,0.0,68,0.00,,CLR,0.00,VWS V12.08,2013-09-05 15:42:00,
2013-09-05 11:47:00,75.7,63.6,30.13,WNW,292,0.0,0.0,66,0.00,,CLR,0.00,VWS V12.08,2013-09-05 15:47:00,
2013-09-05 11:52:00,75.9,62.9,30.13,NW,315,0.0,0.0,64,0.00,,CLR,0.00,VWS V12.08,2013-09-05 15:52:00,
2013-09-05 11:57:00,76.5,63.4,30.13,West,270,0.0,0.0,64,0.00,,CLR,0.00,VWS V12.08,2013-09-05 15:57:00,
2013-09-05 12:02:00,76.8,62.4,30.13,West,270,0.0,0.0,61,0.00,,CLR,0.00,VWS V12.08,2013-09-05 16:02:00,
2013-09-05 12:07:00,77.2,63.2,30.13,West,270,0.0,0.0,62,0.00,,CLR,0.00,VWS V12.08,2013-09-05 16:07:00,
2013-09-05 12:12:00,77.9,64.3,30.13,WSW,248,0.0,0.0,63,0.00,,CLR,0.00,VWS V12.08,2013-09-05 16:12:00,
2013-09-05 12:17:00,78.4,63.9,30.13,NW,315,0.0,3.6,61,0.00,,CLR,0.00,VWS V12.08,2013-09-05 16:17:00,
2013-09-05 12:22:00,78.6,62.6,30.13,NW,315,0.0,0.0,58,0.00,,CLR,0.00,VWS V12.08,2013-09-05 16:22:00,
2013-09-05 12:27:00,79.0,62.5,30.13,NW,315,0.0,1.8,57,0.00,,CLR,0.00,VWS V12.08,2013-09-05 16:27:00,
2013-09-05 12:32:00,79.2,62.1,30.13,West,270,0.0,1.8,56,0.00,,CLR,0.00,VWS V12.08,2013-09-05 16:32:00,
2013-09-05 12:37:00,79.5,61.4,30.13,North,0,0.0,1.8,54,0.00,,CLR,0.00,VWS V12.08,2013-09-05 16:37:00,
2013-09-05 12:42:00,79.9,61.8,30.13,North,0,0.0,0.0,54,0.00,,CLR,0.00,VWS V12.08,2013-09-05 16:42:00,
2013-09-05 12:47:00,79.9,61.8,30.13,ENE,68,0.0,0.9,54,0.00,,CLR,0.00,VWS V12.08,2013-09-05 16:47:00,
2013-09-05 12:52:00,80.2,62.6,30.13,East,90,0.0,0.9,55,0.00,,CLR,0.00,VWS V12.08,2013-09-05 16:52:00,
2013-09-05 12:57:00,80.2,61.6,30.13,East,90,0.0,0.9,53,0.00,,CLR,0.00,VWS V12.08,2013-09-05 16:57:00,
2013-09-05 13:02:00,80.4,63.3,30.13,East,90,0.0,0.0,56,0.00,,CLR,0.00,VWS V12.08,2013-09-05 17:02:00,
2013-09-05 13:07:00,80.8,64.1,30.13,NE,45,1.6,2.2,57,0.00,,CLR,0.00,VWS V12.08,2013-09-05 17:07:00,
2013-09-05 13:12:00,81.1,62.9,30.12,East,90,0.0,2.2,54,0.00,,CLR,0.00,VWS V12.08,2013-09-05 17:12:00,
2013-09-05 13:17:00,81.3,63.1,30.12,NNE,22,0.0,2.2,54,0.00,,CLR,0.00,VWS V12.08,2013-09-05 17:17:00,
2013-09-05 13:22:00,81.3,62.6,30.12,West,270,0.0,0.0,53,0.00,,CLR,0.00,VWS V12.08,2013-09-05 17:22:00,
2013-09-05 13:27:00,81.7,61.8,30.12,WNW,292,0.0,2.5,51,0.00,,CLR,0.00,VWS V12.08,2013-09-05 17:27:00,
2013-09-05 13:32:00,82.0,63.2,30.12,WNW,292,0.0,2.5,53,0.00,,CLR,0.00,VWS V12.08,2013-09-05 17:32:00,
2013-09-05 13:37:00,82.2,62.9,30.12,NE,45,0.0,2.5,52,0.00,,CLR,0.00,VWS V12.08,2013-09-05 17:37:00,
2013-09-05 13:42:00,82.6,64.3,30.12,East,90,0.0,0.0,54,0.00,,CLR,0.00,VWS V12.08,2013-09-05 17:42:00,
2013-09-05 13:47:00,82.9,63.5,30.12,WSW,248,0.0,3.4,52,0.00,,CLR,0.00,VWS V12.08,2013-09-05 17:47:00,
2013-09-05 13:52:00,83.1,62.0,30.12,WSW,248,0.0,3.4,49,0.00,,CLR,0.00,VWS V12.08,2013-09-05 17:52:00,
2013-09-05 13:57:00,82.9,64.1,30.12,ENE,68,0.0,3.4,53,0.00,,CLR,0.00,VWS V12.08,2013-09-05 17:57:00,
2013-09-05 14:02:00,82.2,63.9,30.12,ENE,68,0.0,0.0,54,0.00,,CLR,0.00,VWS V12.08,2013-09-05 18:02:00,
2013-09-05 14:07:00,82.0,64.3,30.12,ENE,68,0.0,0.0,55,0.00,,CLR,0.00,VWS V12.08,2013-09-05 18:07:00,
2013-09-05 14:12:00,81.7,64.5,30.11,ENE,68,0.0,0.0,56,0.00,,CLR,0.00,VWS V12.08,2013-09-05 18:12:00,
2013-09-05 14:17:00,82.0,63.8,30.11,ENE,68,0.0,0.0,54,0.00,,CLR,0.00,VWS V12.08,2013-09-05 18:17:00,
2013-09-05 14:22:00,82.2,66.0,30.11,East,90,0.0,0.0,58,0.00,,CLR,0.00,VWS V12.08,2013-09-05 18:22:00,
2013-09-05 14:27:00,82.4,61.3,30.11,WSW,248,0.0,2.5,49,0.00,,CLR,0.00,VWS V12.08,2013-09-05 18:27:00,
2013-09-05 14:32:00,82.6,61.5,30.11,NE,45,0.0,2.5,49,0.00,,CLR,0.00,VWS V12.08,2013-09-05 18:32:00,
2013-09-05 14:37:00,82.2,62.9,30.11,ENE,68,0.0,2.5,52,0.00,,CLR,0.00,VWS V12.08,2013-09-05 18:37:00,
2013-09-05 14:42:00,82.0,63.8,30.11,ENE,68,0.0,0.0,54,0.00,,CLR,0.00,VWS V12.08,2013-09-05 18:42:00,
2013-09-05 14:47:00,82.0,64.3,30.11,ENE,68,0.0,0.0,55,0.00,,CLR,0.00,VWS V12.08,2013-09-05 18:47:00,
2013-09-05 14:52:00,81.7,64.0,30.11,ENE,68,0.0,0.0,55,0.00,,CLR,0.00,VWS V12.08,2013-09-05 18:52:00,
2013-09-05 14:57:00,81.7,64.5,30.10,ENE,68,0.0,0.0,56,0.00,,CLR,0.00,VWS V12.08,2013-09-05 18:57:00,
2013-09-05 15:02:00,81.5,64.8,30.10,ENE,68,0.0,0.0,57,0.00,,CLR,0.00,VWS V12.08,2013-09-05 19:02:00,
2013-09-05 15:07:00,81.5,65.3,30.10,ENE,68,0.0,0.0,58,0.00,,CLR,0.00,VWS V12.08,2013-09-05 19:07:00,
2013-09-05 15:12:00,82.0,64.8,30.10,ENE,68,0.0,0.0,56,0.00,,CLR,0.00,VWS V12.08,2013-09-05 19:12:00,
2013-09-05 15:17:00,82.0,62.7,30.10,NW,315,0.0,0.0,52,0.00,,CLR,0.00,VWS V12.08,2013-09-05 19:17:00,
2013-09-05 15:22:00,82.2,65.5,30.09,ENE,68,0.0,0.0,57,0.00,,CLR,0.00,VWS V12.08,2013-09-05 19:22:00,
2013-09-05 15:27:00,82.6,64.3,30.09,North,0,0.0,0.0,54,0.00,,CLR,0.00,VWS V12.08,2013-09-05 19:27:00,
2013-09-05 15:32:00,82.6,62.1,30.09,ENE,68,0.0,0.0,50,0.00,,CLR,0.00,VWS V12.08,2013-09-05 19:32:00,
2013-09-05 15:37:00,82.6,63.7,30.09,ENE,68,0.0,0.0,53,0.00,,CLR,0.00,VWS V12.08,2013-09-05 19:37:00,
2013-09-05 15:42:00,82.6,63.2,30.09,WNW,292,0.0,0.0,52,0.00,,CLR,0.00,VWS V12.08,2013-09-05 19:42:00,
2013-09-05 15:47:00,82.6,64.3,30.09,East,90,0.0,0.0,54,0.00,,CLR,0.00,VWS V12.08,2013-09-05 19:47:00,
2013-09-05 15:52:00,82.0,64.3,30.09,East,90,0.0,0.0,55,0.00,,CLR,0.00,VWS V12.08,2013-09-05 19:52:00,
2013-09-05 15:57:00,81.5,64.3,30.09,East,90,0.0,0.0,56,0.00,,CLR,0.00,VWS V12.08,2013-09-05 19:57:00,
2013-09-05 16:02:00,81.7,65.5,30.09,East,90,0.0,0.0,58,0.00,,CLR,0.00,VWS V12.08,2013-09-05 20:02:00,
2013-09-05 16:07:00,81.9,64.6,30.09,ENE,68,0.0,0.0,56,0.00,,CLR,0.00,VWS V12.08,2013-09-05 20:07:00,
2013-09-05 16:12:00,82.2,65.0,30.09,ENE,68,0.0,0.0,56,0.00,,CLR,0.00,VWS V12.08,2013-09-05 20:12:00,
2013-09-05 16:17:00,82.2,65.0,30.09,ENE,68,0.0,0.0,56,0.00,,CLR,0.00,VWS V12.08,2013-09-05 20:17:00,
2013-09-05 16:22:00,82.0,65.3,30.09,East,90,0.0,0.0,57,0.00,,CLR,0.00,VWS V12.08,2013-09-05 20:22:00,
2013-09-05 16:27:00,82.0,65.3,30.09,East,90,0.0,0.0,57,0.00,,CLR,0.00,VWS V12.08,2013-09-05 20:27:00,
2013-09-05 16:32:00,81.7,65.0,30.08,East,90,0.0,0.0,57,0.00,,CLR,0.00,VWS V12.08,2013-09-05 20:32:00,
2013-09-05 16:37:00,81.3,65.6,30.08,East,90,0.0,0.0,59,0.00,,CLR,0.00,VWS V12.08,2013-09-05 20:37:00,
2013-09-05 16:42:00,80.8,65.6,30.08,East,90,0.0,0.0,60,0.00,,CLR,0.00,VWS V12.08,2013-09-05 20:42:00,
2013-09-05 16:47:00,80.4,65.8,30.09,East,90,0.0,0.0,61,0.00,,CLR,0.00,VWS V12.08,2013-09-05 20:47:00,
2013-09-05 16:52:00,80.2,66.1,30.09,East,90,0.0,0.0,62,0.00,,CLR,0.00,VWS V12.08,2013-09-05 20:52:00,
2013-09-05 16:57:00,80.1,65.9,30.08,East,90,0.0,0.0,62,0.00,,CLR,0.00,VWS V12.08,2013-09-05 20:57:00,
2013-09-05 17:02:00,80.1,66.3,30.08,East,90,0.0,0.0,63,0.00,,CLR,0.00,VWS V12.08,2013-09-05 21:02:00,
2013-09-05 17:07:00,80.1,66.8,30.08,East,90,0.0,0.0,64,0.00,,CLR,0.00,VWS V12.08,2013-09-05 21:07:00,
2013-09-05 17:12:00,79.9,66.6,30.09,East,90,0.0,0.0,64,0.00,,CLR,0.00,VWS V12.08,2013-09-05 21:12:00,
2013-09-05 17:17:00,79.9,67.1,30.09,East,90,0.0,0.0,65,0.00,,CLR,0.00,VWS V12.08,2013-09-05 21:17:00,
2013-09-05 17:22:00,79.5,66.7,30.08,East,90,0.0,0.0,65,0.00,,CLR,0.00,VWS V12.08,2013-09-05 21:22:00,
2013-09-05 17:27:00,79.3,66.6,30.09,East,90,0.0,0.0,65,0.00,,CLR,0.00,VWS V12.08,2013-09-05 21:27:00,
2013-09-05 17:32:00,79.0,66.2,30.09,East,90,0.0,0.0,65,0.00,,CLR,0.00,VWS V12.08,2013-09-05 21:32:00,
2013-09-05 17:37:00,78.6,66.3,30.08,East,90,0.0,0.0,66,0.00,,CLR,0.00,VWS V12.08,2013-09-05 21:37:00,
2013-09-05 17:42:00,78.6,66.8,30.08,East,90,0.0,0.0,67,0.00,,CLR,0.00,VWS V12.08,2013-09-05 21:42:00,
2013-09-05 17:47:00,78.4,66.6,30.08,East,90,0.0,0.0,67,0.00,,CLR,0.00,VWS V12.08,2013-09-05 21:47:00,
2013-09-05 17:52:00,78.4,67.0,30.08,East,90,0.0,0.0,68,0.00,,CLR,0.00,VWS V12.08,2013-09-05 21:52:00,
2013-09-05 17:57:00,78.6,67.6,30.08,East,90,0.0,0.0,69,0.00,,CLR,0.00,VWS V12.08,2013-09-05 21:57:00,
2013-09-05 18:02:00,78.6,67.6,30.07,East,90,0.0,0.0,69,0.00,,CLR,0.00,VWS V12.08,2013-09-05 22:02:00,
2013-09-05 18:07:00,78.4,67.4,30.07,East,90,0.0,0.0,69,0.00,,CLR,0.00,VWS V12.08,2013-09-05 22:07:00,
2013-09-05 18:12:00,78.4,67.4,30.08,East,90,0.0,0.0,69,0.00,,CLR,0.00,VWS V12.08,2013-09-05 22:12:00,
2013-09-05 18:17:00,78.1,67.5,30.08,East,90,0.0,0.0,70,0.00,,CLR,0.00,VWS V12.08,2013-09-05 22:17:00,
2013-09-05 18:22:00,78.1,67.5,30.08,East,90,0.0,0.0,70,0.00,,CLR,0.00,VWS V12.08,2013-09-05 22:22:00,
2013-09-05 18:27:00,78.1,67.5,30.08,East,90,0.0,0.0,70,0.00,,CLR,0.00,VWS V12.08,2013-09-05 22:27:00,
2013-09-05 18:32:00,78.1,67.5,30.08,East,90,0.0,0.0,70,0.00,,CLR,0.00,VWS V12.08,2013-09-05 22:32:00,
2013-09-05 18:37:00,77.5,67.0,30.07,East,90,0.0,0.0,70,0.00,,CLR,0.00,VWS V12.08,2013-09-05 22:37:00,
2013-09-05 18:42:00,77.2,66.7,30.07,East,90,0.0,0.0,70,0.00,,CLR,0.00,VWS V12.08,2013-09-05 22:42:00,
2013-09-05 18:47:00,77.2,66.7,30.08,East,90,0.0,0.0,70,0.00,,CLR,0.00,VWS V12.08,2013-09-05 22:47:00,
2013-09-05 18:52:00,76.6,66.1,30.07,East,90,0.0,0.0,70,0.00,,CLR,0.00,VWS V12.08,2013-09-05 22:52:00,
2013-09-05 18:57:00,76.1,65.6,30.07,East,90,0.0,0.0,70,0.00,,CLR,0.00,VWS V12.08,2013-09-05 22:57:00,
2013-09-05 19:02:00,76.1,66.4,30.07,East,90,0.0,0.0,72,0.00,,CLR,0.00,VWS V12.08,2013-09-05 23:02:00,
2013-09-05 19:07:00,75.4,65.7,30.07,East,90,0.0,0.0,72,0.00,,CLR,0.00,VWS V12.08,2013-09-05 23:07:00,
2013-09-05 19:12:00,75.0,65.4,30.07,East,90,0.0,0.0,72,0.00,,CLR,0.00,VWS V12.08,2013-09-05 23:12:00,
2013-09-05 19:17:00,74.8,65.6,30.07,East,90,0.0,0.0,73,0.00,,CLR,0.00,VWS V12.08,2013-09-05 23:17:00,
2013-09-05 19:22:00,74.5,65.3,30.08,East,90,0.0,0.0,73,0.00,,CLR,0.00,VWS V12.08,2013-09-05 23:22:00,
2013-09-05 19:27:00,74.5,65.7,30.07,East,90,0.0,0.0,74,0.00,,CLR,0.00,VWS V12.08,2013-09-05 23:27:00,
2013-09-05 19:32:00,73.9,65.1,30.07,East,90,0.0,0.0,74,0.00,,CLR,0.00,VWS V12.08,2013-09-05 23:32:00,
2013-09-05 19:37:00,73.6,64.8,30.08,East,90,0.0,0.0,74,0.00,,CLR,0.00,VWS V12.08,2013-09-05 23:37:00,
2013-09-05 19:42:00,73.6,64.8,30.08,East,90,0.0,0.0,74,0.00,,CLR,0.00,VWS V12.08,2013-09-05 23:42:00,
2013-09-05 19:47:00,73.6,64.8,30.08,East,90,0.0,0.0,74,0.00,,CLR,0.00,VWS V12.08,2013-09-05 23:47:00,
2013-09-05 19:52:00,72.5,64.1,30.08,East,90,0.0,0.0,75,0.00,,CLR,0.00,VWS V12.08,2013-09-05 23:52:00,
2013-09-05 19:57:00,72.5,64.1,30.08,East,90,0.0,0.0,75,0.00,,CLR,0.00,VWS V12.08,2013-09-05 23:57:00,
2013-09-05 20:02:00,72.0,63.6,30.08,East,90,0.0,0.0,75,0.00,,CLR,0.00,VWS V12.08,2013-09-06 00:02:00,
2013-09-05 20:07:00,71.4,63.1,30.08,East,90,0.0,0.0,75,0.00,,CLR,0.00,VWS V12.08,2013-09-06 00:07:00,
2013-09-05 20:12:00,71.2,63.3,30.09,East,90,0.0,0.0,76,0.00,,CLR,0.00,VWS V12.08,2013-09-06 00:12:00,
2013-09-05 20:17:00,71.1,62.7,30.09,East,90,0.0,0.0,75,0.00,,CLR,0.00,VWS V12.08,2013-09-06 00:17:00,
2013-09-05 20:22:00,70.9,62.6,30.09,East,90,0.0,0.0,75,0.00,,CLR,0.00,VWS V12.08,2013-09-06 00:22:00,
2013-09-05 20:27:00,70.7,62.4,30.09,East,90,0.0,0.0,75,0.00,,CLR,0.00,VWS V12.08,2013-09-06 00:27:00,
2013-09-05 20:32:00,70.3,62.4,30.09,East,90,0.0,0.0,76,0.00,,CLR,0.00,VWS V12.08,2013-09-06 00:32:00,
2013-09-05 20:37:00,70.3,62.4,30.09,East,90,0.0,0.0,76,0.00,,CLR,0.00,VWS V12.08,2013-09-06 00:37:00,
2013-09-05 20:42:00,69.6,61.7,30.10,East,90,0.0,0.0,76,0.00,,CLR,0.00,VWS V12.08,2013-09-06 00:42:00,
2013-09-05 20:47:00,69.4,61.9,30.10,ENE,68,0.0,0.0,77,0.00,,CLR,0.00,VWS V12.08,2013-09-06 00:47:00,
2013-09-05 20:52:00,69.1,61.6,30.10,ENE,68,0.0,0.0,77,0.00,,CLR,0.00,VWS V12.08,2013-09-06 00:52:00,
2013-09-05 20:57:00,69.1,61.6,30.10,East,90,0.0,0.0,77,0.00,,CLR,0.00,VWS V12.08,2013-09-06 00:57:00,
2013-09-05 21:02:00,68.7,61.6,30.10,East,90,0.0,0.0,78,0.00,,CLR,0.00,VWS V12.08,2013-09-06 01:02:00,
2013-09-05 21:07:00,68.7,61.6,30.11,East,90,0.0,0.0,78,0.00,,CLR,0.00,VWS V12.08,2013-09-06 01:07:00,
2013-09-05 21:12:00,68.7,61.6,30.11,East,90,0.0,0.0,78,0.00,,CLR,0.00,VWS V12.08,2013-09-06 01:12:00,
2013-09-05 21:17:00,68.2,61.4,30.11,East,90,0.0,0.0,79,0.00,,CLR,0.00,VWS V12.08,2013-09-06 01:17:00,
2013-09-05 21:22:00,68.2,61.4,30.11,East,90,0.0,0.0,79,0.00,,CLR,0.00,VWS V12.08,2013-09-06 01:22:00,
2013-09-05 21:27:00,68.0,61.2,30.11,East,90,0.0,0.0,79,0.00,,CLR,0.00,VWS V12.08,2013-09-06 01:27:00,
2013-09-05 21:32:00,67.8,61.4,30.11,East,90,0.0,0.0,80,0.00,,CLR,0.00,VWS V12.08,2013-09-06 01:32:00,
2013-09-05 21:37:00,67.6,61.3,30.12,East,90,0.0,0.0,80,0.00,,CLR,0.00,VWS V12.08,2013-09-06 01:37:00,
2013-09-05 21:42:00,67.6,61.3,30.12,East,90,0.2,0.2,80,0.00,,CLR,0.00,VWS V12.08,2013-09-06 01:42:00,
2013-09-05 21:47:00,67.3,61.3,30.12,East,90,0.0,0.2,81,0.00,,CLR,0.00,VWS V12.08,2013-09-06 01:47:00,
2013-09-05 21:52:00,67.3,61.3,30.12,East,90,0.0,0.2,81,0.00,,CLR,0.00,VWS V12.08,2013-09-06 01:52:00,
2013-09-05 21:57:00,67.3,60.9,30.12,East,90,0.0,0.2,80,0.00,,CLR,0.00,VWS V12.08,2013-09-06 01:57:00,
2013-09-05 22:02:00,67.3,60.9,30.13,East,90,0.0,0.0,80,0.00,,CLR,0.00,VWS V12.08,2013-09-06 02:02:00,
2013-09-05 22:07:00,67.3,60.9,30.13,East,90,0.0,0.0,80,0.00,,CLR,0.00,VWS V12.08,2013-09-06 02:07:00,
2013-09-05 22:12:00,67.1,60.7,30.13,East,90,0.0,0.0,80,0.00,,CLR,0.00,VWS V12.08,2013-09-06 02:12:00,
2013-09-05 22:17:00,66.9,60.9,30.13,ESE,112,0.0,0.0,81,0.00,,CLR,0.00,VWS V12.08,2013-09-06 02:17:00,
2013-09-05 22:22:00,66.9,60.9,30.13,ESE,112,0.0,0.0,81,0.00,,CLR,0.00,VWS V12.08,2013-09-06 02:22:00,
2013-09-05 22:27:00,66.9,60.9,30.13,ESE,112,0.0,0.0,81,0.00,,CLR,0.00,VWS V12.08,2013-09-06 02:27:00,
2013-09-05 22:32:00,66.7,60.7,30.14,ESE,112,0.0,0.0,81,0.00,,CLR,0.00,VWS V12.08,2013-09-06 02:32:00,
2013-09-05 22:37:00,66.7,60.7,30.14,ESE,112,0.0,0.0,81,0.00,,CLR,0.00,VWS V12.08,2013-09-06 02:37:00,
2013-09-05 22:42:00,66.7,60.7,30.14,ESE,112,0.0,0.0,81,0.00,,CLR,0.00,VWS V12.08,2013-09-06 02:42:00,
2013-09-05 22:47:00,66.7,60.7,30.14,ESE,112,0.0,0.0,81,0.00,,CLR,0.00,VWS V12.08,2013-09-06 02:47:00,
2013-09-05 22:52:00,66.6,60.6,30.14,East,90,0.0,0.0,81,0.00,,CLR,0.00,VWS V12.08,2013-09-06 02:52:00,
2013-09-05 22:57:00,66.6,60.6,30.14,East,90,0.0,0.0,81,0.00,,CLR,0.00,VWS V12.08,2013-09-06 02:57:00,
2013-09-05 23:02:00,66.4,60.4,30.14,East,90,0.0,0.0,81,0.00,,CLR,0.00,VWS V12.08,2013-09-06 03:02:00,
2013-09-05 23:07:00,66.4,60.4,30.14,East,90,0.0,0.0,81,0.00,,CLR,0.00,VWS V12.08,2013-09-06 03:07:00,
2013-09-05 23:12:00,66.2,60.2,30.14,East,90,0.0,0.0,81,0.00,,CLR,0.00,VWS V12.08,2013-09-06 03:12:00,
2013-09-05 23:17:00,66.0,60.0,30.14,East,90,0.0,0.0,81,0.00,,CLR,0.00,VWS V12.08,2013-09-06 03:17:00,
2013-09-05 23:22:00,66.0,60.0,30.14,ESE,112,0.0,0.0,81,0.00,,CLR,0.00,VWS V12.08,2013-09-06 03:22:00,
2013-09-05 23:27:00,66.0,60.0,30.14,ESE,112,0.0,0.0,81,0.00,,CLR,0.00,VWS V12.08,2013-09-06 03:27:00,
2013-09-05 23:32:00,66.0,60.0,30.14,East,90,0.0,0.0,81,0.00,,CLR,0.00,VWS V12.08,2013-09-06 03:32:00,
2013-09-05 23:37:00,65.8,59.8,30.14,ESE,112,0.0,0.0,81,0.00,,CLR,0.00,VWS V12.08,2013-09-06 03:37:00,
2013-09-05 23:42:00,65.8,59.8,30.14,ESE,112,0.0,0.0,81,0.00,,CLR,0.00,VWS V12.08,2013-09-06 03:42:00,
2013-09-05 23:47:00,65.8,59.8,30.14,ESE,112,0.0,0.0,81,0.00,,CLR,0.00,VWS V12.08,2013-09-06 03:47:00,
2013-09-05 23:52:00,65.5,59.5,30.14,ESE,112,0.0,0.0,81,0.00,,CLR,0.00,VWS V12.08,2013-09-06 03:52:00,
2013-09-05 23:57:00,65.5,59.5,30.14,ESE,112,0.0,0.0,81,0.00,,CLR,0.00,VWS V12.08,2013-09-06 03:57:00,